ORBCOMM FM 4

Satellite information

Favourite Embed

Satellite Type and Status

PAYLOADIN ORBIT

Key statistics

Satellite ORBCOMM FM 4 at a glance.

Uptime

10069

Days in orbit

Revolutions

≈ 14.3

Per day

Orbit

SSO

Sun Synchronous Orbit

Inclination

108.0

Latest

Satellite identification and parameters

Extended collection of information and parameters for ORBCOMM FM 4.

Object identification

Identified? True

Debris? False

Object name: ORBCOMM FM 4

International designator: 1998-007C

Object number (NORAD): 25159

Object ID (CCSDS): 25159

Country: ORBITAL TELECOMMUNICATIONS SATELLITE (GLOBALSTAR) (ORB)

Current information (Y/N): Y

RCS size: MEDIUM

Orbital parameters

Period: 100.355 minutes

Inclination: 107.9643 deg

SMA: 7153.504 km

Apoapsis: 803.179 km

Periapsis: 747.559 km

RAAN: 301.0092 deg

Eccentricy: 0.00388761

Argument of periapsis: 109.731 deg

Mean anomaly: 250.8029 deg

Mean motion: 14.34909575 rev/day

Mean motion (dot): 0.00001992 rev/day2

B* drag term: 0.00073952553 1/REarth

Two-line elements (TLE)

Creation date: Sept. 4, 2025, 10:13 a.m.

Reference frame: TEME

Reference center: EARTH

Epoch: Sept. 4, 2025, 2:24 a.m. UTC

TLE line 0: 0 ORBCOMM FM 4

TLE line 1: 1 25159U 98007C 25247.10024382 .00001992 00000-0 73953-3 0 9997

TLE line 2: 2 25159 107.9643 301.0092 0038876 109.7310 250.8029 14.34909575435546

Live tracking on map

Real-time ground track for satellite ORBCOMM FM 4.

In-orbit conjunctions

There are no conjunctions computed for ORBCOMM FM 4, at the moment. Check back to stay up to date, as we update our databases every day.

Go to all conjunctions

Associated space launch

The US Navy GFO (Geosat Follow On), is a 369 kg minisatellite based on the Techstar platform to carry on the mission of Geosat. It was launched on the 10th February 1998 on a Taurus-2210 from VAFB alongside two Orbcomm satellites, into a 789 × 881 km (779 × 790 km planned) 108 degree inclined orbit.

ORBCOMM FM 4 was lifted into orbit during the mission ‘Taurus 2210 | GFO’, on board a Minotaur-C 2210 space rocket.

The launch took place on Feb. 10, 1998, 1:20 p.m. from Space Launch Complex 576E.

For more information about the launch, click the button.

Launch to space Taurus 2210 | GFO
Taurus 2210 | GFO

Agency: N/A

Status: Launch Successful

Launch date: Feb. 10, 1998, 1:20 p.m. UTC

Rocket: Minotaur-C 2210

Launch pad: Space Launch Complex 576E

Location: Vandenberg SFB, CA, USA

...

Latest news about this satellite

There are no fresh news available about this satellite. Check back as we update our databases every day.


Newsletter sign-up

Weekly statistics, charts and insights to help you stay on top of the space industry.